sat.trackr.live / text

‹ back to catalog

MICROCARB

NORAD 64899 · 2025-156A

PAYLOAD ACTIVE UNKNOWN

§ Identity

Operator
Country
FR
Launch date
2025-07-26
Launch site
FRGUI
Launch vehicle
Mass (kg)
RCS (m²)

Purposes: earth_obs

External: N2YO · Heavens-Above · Gunter

§ Orbital elements

Epoch: 2026-05-25T02:39:39.371040Z

Period
97.81 min
Inclination
97.9833°
Eccentricity
0.0015990
Mean motion
14.72297332 rev/d
Perigee alt
642.5 km
Apogee alt
665.0 km
Semi-major
7,031.9 km
B*
7.2063e-5
RAAN
222.6600°
Arg perigee
351.0044°
Mean anomaly
9.0875°
Rev number
4,457

§ Raw data

MICROCARB1 64899U 25156A   26145.11087235  .00000406  00000+0  72063-4 0  99912 64899  97.9833 222.6600 0015990 351.0044   9.0875 14.72297332 44575

JSON: /api/v1/satellites/64899 · /tle

For live sub-satellite position, see the globe view (requires WebGL).

§ Visibility from observer

Set your observer location to see the next 7 days of passes ≥ 10°. The values pass through the URL so the page stays shareable.

No JS? Fill the form by hand. The geolocation button needs JavaScript.